EW1423 Weather Reports


Display with metric or nautical units.
time (UTC)temp
F
wind
direction
speed
MPH
gust
MPH
rain 1hr
in
rain 24hr
in
rain mn
in
humidity
%
barometer
mb
20200711072304 61 306 2.0 5.0 0.00 0.09 0.09 78 1021.0
20200711071805 61 329 2.0 5.0 0.00 0.09 0.09 76 1020.9
20200711071305 61 30 2.0 7.0 0.00 0.09 0.09 78 1020.9
20200711070808 61 297 3.0 5.0 0.00 0.09 0.09 78 1020.9
20200711070305 61 340 3.0 8.0 0.00 0.09 0.09 77 1020.8
20200711065808 62 320 2.0 9.0 0.00 0.09 0.09 78 1020.7
20200711065306 62 355 1.0 5.0 0.00 0.09 0.09 79 1020.6
20200711064805 61 303 1.0 7.0 0.00 0.09 0.09 80 1020.6
20200711064304 61 323 3.0 7.0 0.00 0.09 0.09 80 1020.6
20200711063804 61 285 2.0 9.0 0.00 0.09 0.09 80 1020.5
20200711063304 61 306 3.0 5.0 0.00 0.09 0.09 81 1020.6
20200711062806 60 303 3.0 5.0 0.00 0.09 0.09 81 1020.5
20200711062306 60 303 2.0 6.0 0.00 0.09 0.09 81 1020.4
20200711061805 60 339 2.0 5.0 0.00 0.09 0.09 81 1020.4
20200711061306 61 303 3.0 9.0 0.00 0.09 0.09 80 1020.3
20200711060805 60 335 2.0 7.0 0.00 0.09 0.09 80 1020.4
20200711060304 61 307 4.0 10.0 0.00 0.09 0.09 80 1020.3
20200711055805 60 315 3.0 7.0 0.00 0.09 0.09 81 1020.3
20200711055306 60 306 3.0 8.0 0.00 0.09 0.09 82 1020.3
20200711054808 60 298 1.0 3.0 0.00 0.09 0.09 83 1020.2
20200711054307 60 289 2.0 5.0 0.01 0.09 0.09 84 1020.1
20200711053805 59 308 2.0 8.0 0.01 0.09 0.09 83 1020.1
20200711053305 59 12 2.0 5.0 0.01 0.09 0.09 84 1020.0
20200711052807 59 309 3.0 9.0 0.01 0.09 0.09 83 1019.9
20200711052304 59 348 3.0 8.0 0.01 0.09 0.09 83 1019.7
20200711051309 59 331 2.0 9.0 0.01 0.09 0.09 85 1019.6
20200711050809 59 335 3.0 8.0 0.01 0.09 0.09 84 1019.5
20200711050307 59 329 2.0 8.0 0.01 0.09 0.09 85 1019.4
20200711045805 60 316 2.0 8.0 0.01 0.09 0.09 85 1019.3
20200711045305 60 331 3.0 7.0 0.01 0.09 0.09 86 1019.3
20200711044806 60 314 2.0 5.0 0.01 0.09 0.09 86 1019.2
20200711044310 60 325 2.0 5.0 0.01 0.08 0.08 86 1019.1
20200711043807 60 322 1.0 5.0 0.01 0.08 0.08 86 1019.1
20200711043304 60 324 2.0 5.0 0.01 0.08 0.08 86 1019.1
20200711042805 60 323 2.0 5.0 0.01 0.08 0.08 86 1019.2
20200711042305 60 311 2.0 5.0 0.01 0.08 0.08 86 1019.1
20200711041805 59 324 2.0 5.0 0.01 0.08 0.08 86 1019.0
20200711041306 59 309 2.0 5.0 0.01 0.08 0.08 86 1018.8
20200711040806 59 268 1.0 5.0 0.01 0.08 0.08 86 1018.8
20200711040307 60 287 2.0 5.0 0.01 0.08 0.08 86 1018.8
20200711035804 60 332 3.0 5.0 0.01 0.08 0.08 85 1018.8
20200711035305 60 310 2.0 7.0 0.01 0.08 0.08 85 1018.7
20200711034807 60 268 3.0 8.0 0.01 0.08 0.08 85 1018.7
20200711034305 60 303 4.0 8.0 0.00 0.07 0.07 84 1018.6
20200711033806 60 305 3.0 8.0 0.00 0.07 0.07 84 1018.4
20200711033304 61 310 2.0 5.0 0.00 0.07 0.07 84 1018.3
20200711032805 61 329 2.0 8.0 0.00 0.07 0.07 84 1018.3
20200711032306 61 324 3.0 7.0 0.01 0.07 0.07 84 1018.2
20200711031805 61 336 1.0 5.0 0.01 0.07 0.07 84 1018.1
20200711031305 61 314 2.0 5.0 0.01 0.07 0.07 85 1018.1
20200711030804 61 319 2.0 3.0 0.01 0.07 0.07 85 1017.9
20200711030306 61 313 1.0 3.0 0.02 0.07 0.07 84 1017.8
20200711025805 60 307 1.0 3.0 0.02 0.07 0.07 85 1017.8
20200711025308 60 305 1.0 3.0 0.02 0.07 0.07 84 1017.7
20200711024805 60 300 1.0 3.0 0.02 0.07 0.07 85 1017.8
20200711024308 61 331 1.0 3.0 0.02 0.07 0.07 84 1017.7
20200711023810 61 319 1.0 5.0 0.02 0.07 0.07 84 1017.7
20200711023305 61 308 2.0 5.0 0.02 0.07 0.07 83 1017.7
20200711022805 61 349 2.0 5.0 0.02 0.07 0.07 83 1017.6
20200711022305 61 288 2.0 5.0 0.01 0.06 0.06 83 1017.9
20200711021805 61 272 2.0 5.0 0.01 0.06 0.06 84 1017.7
20200711021305 61 326 1.0 2.0 0.01 0.06 0.06 84 1017.6
20200711020806 61 326 1.0 3.0 0.01 0.06 0.06 84 1017.7
20200711020305 61 326 1.0 2.0 0.00 0.05 0.05 83 1017.7
20200711015805 61 326 1.0 3.0 0.00 0.05 0.05 83 1017.7
20200711015309 61 316 2.0 3.0 0.00 0.05 0.05 83 1017.7
20200711014806 61 319 1.0 2.0 0.01 0.05 0.05 82 1017.8
20200711014306 61 299 2.0 3.0 0.01 0.05 0.05 83 1017.7
20200711013824 61 14 1.0 3.0 0.01 0.05 0.05 83 1017.7
20200711013308 61 285 1.0 3.0 0.02 0.05 0.05 83 1017.7
20200711012804 61 288 2.0 3.0 0.02 0.05 0.05 83 1017.8
20200711012309 61 319 1.0 5.0 0.03 0.05 0.05 82 1018.0
20200711011805 61 329 1.0 3.0 0.03 0.05 0.05 83 1018.0
20200711011308 61 319 2.0 5.0 0.04 0.05 0.05 83 1018.0
20200711010806 61 304 1.0 2.0 0.04 0.05 0.05 83 1017.9
20200711010305 61 292 0.0 0.0 0.05 0.05 0.05 83 1017.7
20200711005805 61 292 0.0 2.0 0.05 0.05 0.05 80 1017.7
20200711005305 61 292 1.0 2.0 0.05 0.05 0.05 80 1017.8
20200711004805 61 292 1.0 2.0 0.04 0.04 0.04 81 1017.9
20200711004306 61 292 0.0 3.0 0.04 0.04 0.04 80 1018.0
20200711003805 62 288 1.0 2.0 0.04 0.04 0.04 79 1018.0
20200711003305 62 325 2.0 3.0 0.03 0.03 0.03 78 1018.0
20200711002805 62 309 1.0 3.0 0.03 0.03 0.03 77 1018.0
20200711002305 62 303 1.0 3.0 0.02 0.02 0.02 78 1018.0
20200711001805 63 318 2.0 5.0 0.02 0.02 0.02 76 1018.0
20200711001305 63 312 2.0 5.0 0.01 0.01 0.01 74 1018.0
20200711000806 63 316 2.0 7.0 0.01 0.01 0.01 74 1018.0
20200711000305 64 316 3.0 6.0 0.00 0.00 0.00 71 1017.9
20200710235805 65 311 3.0 5.0 0.00 0.00 0.00 68 1017.7
20200710235305 65 328 2.0 5.0 0.00 0.00 0.00 67 1017.7
20200710234805 65 327 2.0 5.0 0.00 0.00 0.00 65 1017.6
20200710234305 66 307 2.0 5.0 0.00 0.00 0.00 62 1017.5
20200710233806 66 314 1.0 3.0 0.00 0.00 0.00 61 1017.4
20200710233305 66 317 1.0 3.0 0.00 0.00 0.00 60 1017.4
20200710232805 67 313 1.0 5.0 0.00 0.00 0.00 60 1017.4
20200710232306 67 315 2.0 3.0 0.00 0.00 0.00 60 1017.4
20200710231806 67 317 1.0 2.0 0.00 0.00 0.00 59 1017.4
20200710231305 67 321 1.0 3.0 0.00 0.00 0.00 60 1017.4
20200710230805 67 295 1.0 2.0 0.00 0.00 0.00 58 1017.3
20200710230305 67 288 1.0 2.0 0.00 0.00 0.00 59 1017.2
20200710225805 67 288 0.0 1.0 0.00 0.00 0.00 58 1017.1
20200710225306 67 288 1.0 1.0 0.00 0.00 0.00 57 1017.0
20200710224824 67 288 1.0 2.0 0.00 0.00 0.00 57 1016.8
20200710224305 67 288 0.0 2.0 0.00 0.00 0.00 56 1016.9
20200710223806 67 288 1.0 3.0 0.00 0.00 0.00 57 1017.0
20200710223305 67 302 1.0 2.0 0.00 0.00 0.00 58 1017.0
20200710222805 67 305 2.0 5.0 0.00 0.00 0.00 57 1016.9
20200710222309 68 309 2.0 3.0 0.00 0.00 0.00 58 1016.8
20200710221805 68 355 1.0 3.0 0.00 0.00 0.00 57 1016.9
20200710221308 68 312 2.0 3.0 0.00 0.00 0.00 56 1016.9
20200710220827 68 314 1.0 3.0 0.00 0.00 0.00 56 1016.9
20200710220306 68 329 2.0 3.0 0.00 0.00 0.00 55 1016.9
20200710215805 68 13 1.0 3.0 0.00 0.00 0.00 55 1016.8
20200710215306 68 312 2.0 5.0 0.00 0.00 0.00 55 1016.8
20200710214805 68 309 1.0 3.0 0.00 0.00 0.00 56 1016.8
20200710214305 68 310 2.0 3.0 0.00 0.00 0.00 55 1016.7
20200710213805 68 282 2.0 5.0 0.00 0.00 0.00 56 1016.6
20200710213305 68 311 2.0 5.0 0.00 0.00 0.00 56 1016.6
20200710212805 68 294 1.0 5.0 0.00 0.00 0.00 56 1016.5
20200710212306 68 297 1.0 2.0 0.00 0.00 0.00 56 1016.5
20200710211805 68 297 0.0 2.0 0.00 0.00 0.00 57 1016.3
20200710211310 68 297 0.0 2.0 0.00 0.00 0.00 56 1016.4
20200710210808 68 298 1.0 2.0 0.00 0.00 0.00 56 1016.2
20200710210305 68 298 1.0 2.0 0.00 0.00 0.00 56 1016.2
20200710205805 68 302 2.0 5.0 0.00 0.00 0.00 56 1016.2
20200710204805 69 353 2.0 5.0 0.00 0.00 0.00 56 1016.1
20200710204305 69 309 1.0 5.0 0.00 0.00 0.00 56 1016.0
20200710203805 69 324 3.0 7.0 0.00 0.00 0.00 56 1016.0
20200710203305 69 332 2.0 6.0 0.00 0.00 0.00 56 1016.0
20200710202807 69 326 3.0 7.0 0.00 0.00 0.00 55 1016.0
20200710202305 69 328 2.0 5.0 0.00 0.00 0.00 56 1015.9
20200710201807 69 322 2.0 5.0 0.00 0.00 0.00 55 1015.8
20200710201304 70 305 3.0 6.0 0.00 0.00 0.00 55 1015.7
20200710200805 70 321 1.0 5.0 0.00 0.00 0.00 54 1015.6
20200710200305 70 331 2.0 5.0 0.00 0.00 0.00 54 1015.5
20200710195808 70 312 3.0 7.0 0.00 0.00 0.00 53 1015.5
20200710195306 70 295 1.0 3.0 0.00 0.00 0.00 54 1015.5
20200710194806 70 304 1.0 3.0 0.00 0.00 0.00 53 1015.4
20200710194304 70 306 2.0 5.0 0.00 0.00 0.00 53 1015.3
20200710193805 70 332 2.0 5.0 0.00 0.00 0.00 53 1015.5
20200710193308 70 305 2.0 7.0 0.00 0.00 0.00 53 1015.5
20200710192805 71 312 3.0 7.0 0.00 0.00 0.00 53 1015.6
20200710192305 71 352 3.0 8.0 0.00 0.00 0.00 52 1015.5
20200710191806 71 298 3.0 9.0 0.00 0.00 0.00 52 1015.4
20200710191305 71 290 3.0 8.0 0.00 0.00 0.00 51 1015.4
20200710190805 71 320 2.0 9.0 0.00 0.00 0.00 51 1015.3
20200710190306 71 319 5.0 13.0 0.00 0.00 0.00 51 1015.3
20200710185807 71 298 6.0 15.0 0.00 0.00 0.00 50 1015.4
20200710185307 71 302 5.0 10.0 0.00 0.00 0.00 50 1015.3
20200710184805 71 304 3.0 9.0 0.00 0.00 0.00 50 1015.3
20200710184305 71 300 3.0 8.0 0.00 0.00 0.00 50 1015.2
20200710183806 71 347 5.0 12.0 0.00 0.00 0.00 49 1015.1
20200710183307 72 5 5.0 10.0 0.00 0.00 0.00 49 1015.0
20200710182805 72 332 3.0 9.0 0.00 0.00 0.00 49 1014.9
20200710182306 72 338 4.0 12.0 0.00 0.00 0.00 48 1014.8
20200710181807 73 300 4.0 8.0 0.00 0.00 0.00 49 1014.7
20200710181305 73 327 4.0 9.0 0.00 0.00 0.00 48 1014.6
20200710180805 73 339 4.0 10.0 0.00 0.00 0.00 47 1014.5
20200710180306 74 282 3.0 9.0 0.00 0.00 0.00 46 1014.5
20200710175805 74 322 6.0 12.0 0.00 0.00 0.00 47 1014.5
20200710173803 74 285 6.0 12.0 0.00 0.00 0.00 45 1014.3
20200710172804 75 317 5.0 13.0 0.00 0.00 0.00 45 1014.4
20200710172303 75 315 6.0 14.0 0.00 0.00 0.00 45 1014.3
20200710171804 75 339 6.0 14.0 0.00 0.00 0.00 46 1014.2
20200710171305 75 295 6.0 14.0 0.00 0.00 0.00 45 1014.1
20200710170803 75 323 4.0 15.0 0.00 0.00 0.00 46 1014.0
20200710170304 75 312 6.0 12.0 0.00 0.00 0.00 46 1014.0
20200710165803 76 324 7.0 16.0 0.00 0.00 0.00 46 1013.9
20200710165304 76 301 7.0 17.0 0.00 0.00 0.00 46 1013.9
20200710164807 77 348 5.0 14.0 0.00 0.00 0.00 46 1013.8
20200710164303 76 303 5.0 14.0 0.00 0.00 0.00 47 1013.7
20200710163804 76 296 8.0 16.0 0.00 0.00 0.00 47 1013.7
20200710163306 77 289 7.0 14.0 0.00 0.00 0.00 45 1013.6
20200710162803 77 313 6.0 16.0 0.00 0.00 0.00 45 1013.5
20200710162304 77 337 4.0 13.0 0.00 0.00 0.00 46 1013.4
20200710161805 78 4 6.0 15.0 0.00 0.00 0.00 44 1013.4
20200710161303 78 320 6.0 15.0 0.00 0.00 0.00 44 1013.3
20200710160804 79 297 6.0 13.0 0.00 0.00 0.00 44 1013.3
20200710160304 79 339 6.0 12.0 0.00 0.00 0.00 42 1013.2
20200710155803 80 283 6.0 13.0 0.00 0.00 0.00 43 1013.1
20200710155304 79 287 4.0 17.0 0.00 0.00 0.00 43 1013.1
20200710154804 79 307 5.0 15.0 0.00 0.00 0.00 43 1013.1
20200710154303 79 319 6.0 10.0 0.00 0.00 0.00 43 1013.1
20200710153803 80 295 6.0 15.0 0.00 0.00 0.00 44 1013.0
20200710153305 79 308 9.0 22.0 0.00 0.00 0.00 44 1013.0
20200710152804 79 318 6.0 18.0 0.00 0.00 0.00 44 1013.1
20200710152304 79 294 7.0 15.0 0.00 0.00 0.00 45 1013.1
20200710151803 80 320 6.0 14.0 0.00 0.00 0.00 43 1012.9
20200710151305 80 294 5.0 13.0 0.00 0.00 0.00 43 1013.0
20200710150803 80 321 5.0 12.0 0.00 0.00 0.00 43 1012.9
20200710150306 81 295 7.0 16.0 0.00 0.00 0.00 43 1012.8
20200710145804 80 311 7.0 17.0 0.00 0.00 0.00 43 1012.7
20200710145306 80 326 5.0 16.0 0.00 0.00 0.00 46 1012.6
20200710144804 80 323 10.0 21.0 0.00 0.00 0.00 43 1012.7
20200710144303 81 297 6.0 15.0 0.00 0.00 0.00 44 1012.6
20200710143807 80 321 9.0 15.0 0.00 0.00 0.00 43 1012.6
20200710143306 80 318 9.0 14.0 0.00 0.00 0.00 43 1012.7
20200710142805 80 303 7.0 18.0 0.00 0.00 0.00 44 1012.6
20200710142304 81 318 10.0 21.0 0.00 0.00 0.00 42 1012.6
20200710141804 81 310 10.0 16.0 0.00 0.00 0.00 42 1012.6
20200710141303 80 302 9.0 20.0 0.00 0.00 0.00 44 1012.5
20200710140805 80 292 11.0 22.0 0.00 0.00 0.00 44 1012.5
20200710140303 81 358 10.0 16.0 0.00 0.00 0.00 44 1012.5
20200710135804 80 322 8.0 20.0 0.00 0.00 0.00 45 1012.6
20200710135308 80 318 13.0 21.0 0.00 0.00 0.00 44 1012.5
20200710134847 80 310 10.0 23.0 0.00 0.00 0.00 44 1012.5
20200710134305 80 307 8.0 18.0 0.00 0.00 0.00 45 1012.4
20200710133805 81 310 9.0 17.0 0.00 0.00 0.00 45 1012.4
20200710133303 82 317 9.0 17.0 0.00 0.00 0.00 43 1012.3
20200710132808 82 289 6.0 21.0 0.00 0.00 0.00 44 1012.2
20200710132306 82 322 8.0 20.0 0.00 0.00 0.00 43 1012.2
20200710131803 82 305 12.0 18.0 0.00 0.00 0.00 43 1012.2
20200710131304 82 299 9.0 16.0 0.00 0.00 0.00 43 1012.0
20200710130807 83 308 11.0 21.0 0.00 0.00 0.00 41 1012.0
20200710130305 82 329 8.0 14.0 0.00 0.00 0.00 42 1011.8
20200710125804 82 313 10.0 15.0 0.00 0.00 0.00 42 1011.8
20200710125307 82 314 7.0 14.0 0.00 0.00 0.00 43 1011.7
20200710124805 82 319 10.0 20.0 0.00 0.00 0.00 42 1011.7
20200710124303 82 319 9.0 16.0 0.00 0.00 0.00 42 1011.6
20200710123804 83 309 10.0 17.0 0.00 0.00 0.00 42 1011.7
20200710123304 82 324 6.0 15.0 0.00 0.00 0.00 44 1011.5
20200710122803 82 316 7.0 14.0 0.00 0.00 0.00 44 1011.5
20200710122306 81 330 9.0 15.0 0.00 0.00 0.00 44 1011.5
20200710121808 81 319 7.0 17.0 0.00 0.00 0.00 46 1011.4
20200710121304 80 315 9.0 17.0 0.00 0.00 0.00 46 1011.5
20200710120804 80 317 9.0 18.0 0.00 0.00 0.00 46 1011.4
20200710120303 81 341 6.0 10.0 0.00 0.00 0.00 46 1011.3
20200710115804 82 295 6.0 10.0 0.00 0.00 0.00 44 1011.3
20200710115304 83 314 7.0 14.0 0.00 0.00 0.00 43 1011.2
20200710114803 83 291 6.0 13.0 0.00 0.00 0.00 43 1011.1
20200710114304 85 298 6.0 14.0 0.00 0.00 0.00 41 1011.1
20200710113804 86 298 8.0 15.0 0.00 0.00 0.00 36 1011.0
20200710113304 87 284 9.0 14.0 0.00 0.00 0.00 34 1010.9
20200710112804 87 280 7.0 17.0 0.00 0.00 0.00 36 1010.9
20200710112304 86 314 6.0 15.0 0.00 0.00 0.00 36 1010.8
20200710111804 86 291 10.0 18.0 0.00 0.00 0.00 34 1010.9
20200710111304 87 270 7.0 15.0 0.00 0.00 0.00 38 1010.8
20200710110803 86 288 7.0 14.0 0.00 0.00 0.00 37 1010.9
20200710110304 86 283 8.0 18.0 0.00 0.00 0.00 37 1010.8
20200710105803 86 300 9.0 15.0 0.00 0.00 0.00 35 1010.7
20200710105306 86 298 5.0 14.0 0.00 0.00 0.00 39 1010.7
20200710104804 85 294 8.0 15.0 0.00 0.00 0.00 37 1010.8
20200710104303 86 279 5.0 16.0 0.00 0.00 0.00 37 1010.7
20200710103805 87 293 5.0 13.0 0.00 0.00 0.00 38 1010.8
20200710103305 85 269 5.0 14.0 0.00 0.00 0.00 39 1010.7
20200710102807 85 252 7.0 15.0 0.00 0.00 0.00 38 1010.8
20200710102304 86 249 6.0 12.0 0.00 0.00 0.00 37 1010.7
20200710101804 86 278 3.0 15.0 0.00 0.00 0.00 39 1010.6
20200710101307 86 287 6.0 14.0 0.00 0.00 0.00 38 1010.6
20200710100804 86 220 5.0 14.0 0.00 0.00 0.00 38 1010.7
20200710100304 85 264 6.0 15.0 0.00 0.00 0.00 40 1010.7
20200710095804 85 244 9.0 16.0 0.00 0.00 0.00 38 1010.8
20200710095304 85 248 7.0 15.0 0.00 0.00 0.00 37 1010.9
20200710094804 85 174 5.0 14.0 0.00 0.00 0.00 39 1010.8
20200710094307 85 270 5.0 14.0 0.00 0.00 0.00 39 1010.9
20200710093805 85 253 7.0 13.0 0.00 0.00 0.00 38 1011.0
20200710093303 84 266 6.0 13.0 0.00 0.00 0.00 40 1011.0
20200710092803 85 271 6.0 13.0 0.00 0.00 0.00 40 1011.0
20200710092304 84 236 7.0 15.0 0.00 0.00 0.00 39 1010.9
20200710091807 84 232 5.0 10.0 0.00 0.00 0.00 40 1010.9
20200710091304 84 290 6.0 14.0 0.00 0.00 0.00 41 1010.9
20200710090804 84 233 6.0 15.0 0.00 0.00 0.00 41 1010.9
20200710090304 84 246 7.0 15.0 0.00 0.00 0.00 41 1010.9
20200710085807 83 249 6.0 14.0 0.00 0.00 0.00 41 1010.9
20200710085304 83 250 6.0 14.0 0.00 0.00 0.00 41 1010.8
20200710084805 83 239 7.0 15.0 0.00 0.00 0.00 42 1010.9
20200710084305 83 266 5.0 12.0 0.00 0.00 0.00 42 1010.9
20200710083805 82 238 5.0 13.0 0.00 0.00 0.00 42 1010.8
20200710083304 82 304 7.0 15.0 0.00 0.00 0.00 43 1010.9
20200710082804 82 249 5.0 15.0 0.00 0.00 0.00 42 1010.9
20200710082304 82 276 4.0 9.0 0.00 0.00 0.00 44 1010.9
20200710081804 81 257 4.0 9.0 0.00 0.00 0.00 44 1010.9
20200710081303 81 254 7.0 14.0 0.00 0.00 0.00 43 1011.0
20200710080805 81 285 4.0 7.0 0.00 0.00 0.00 44 1011.1
20200710080304 80 254 3.0 9.0 0.00 0.00 0.00 45 1011.1
20200710075804 79 278 5.0 13.0 0.00 0.00 0.00 44 1011.1
20200710075303 79 311 3.0 8.0 0.00 0.00 0.00 46 1011.1
20200710074804 79 265 2.0 7.0 0.00 0.00 0.00 49 1011.1
20200710074304 78 226 2.0 9.0 0.00 0.00 0.00 48 1011.2
20200710073807 78 156 3.0 7.0 0.00 0.00 0.00 48 1011.2
20200710073307 77 252 3.0 6.0 0.00 0.00 0.00 50 1011.2
20200710072806 76 205 2.0 5.0 0.00 0.00 0.00 55 1011.3